Time,TemperatureF,DewpointF,PressureIn,WindDirection,WindDirectionDegrees,WindSpeedMPH,WindSpeedGustMPH,Humidity,HourlyPrecipIn,Conditions,Clouds,dailyrainin,SoftwareType,DateUTC
2013-01-22 00:02:00,27.3,26.6,30.19,SSW,194,0.0,0.0,97,0.00,,---,0.00,VWS V14.00,2013-01-22 08:02:00,
2013-01-22 00:07:00,27.2,26.5,30.19,WSW,237,0.0,0.0,97,0.00,,---,0.00,VWS V14.00,2013-01-22 08:07:00,
2013-01-22 00:12:00,27.2,26.5,30.19,SSE,153,0.0,1.0,97,0.00,,---,0.00,VWS V14.00,2013-01-22 08:12:00,
2013-01-22 00:17:00,27.1,26.4,30.19,SSE,153,0.0,1.0,97,0.00,,---,0.00,VWS V14.00,2013-01-22 08:17:00,
2013-01-22 00:22:00,27.1,26.4,30.19,South,190,0.0,2.0,97,0.00,,---,0.00,VWS V14.00,2013-01-22 08:22:00,
2013-01-22 00:27:00,27.0,26.3,30.18,SSW,202,0.0,2.0,97,0.00,,---,0.00,VWS V14.00,2013-01-22 08:27:00,
2013-01-22 00:32:00,27.0,26.3,30.18,SSW,205,1.0,1.0,97,0.00,,---,0.00,VWS V14.00,2013-01-22 08:32:00,
2013-01-22 00:37:00,27.0,26.3,30.18,SSW,205,0.0,1.0,97,0.00,,---,0.00,VWS V14.00,2013-01-22 08:37:00,
2013-01-22 00:42:00,26.9,26.2,30.18,SSW,207,0.0,1.0,97,0.00,,---,0.00,VWS V14.00,2013-01-22 08:42:00,
2013-01-22 00:47:00,26.9,26.2,30.17,SSW,207,0.0,1.0,97,0.00,,---,0.00,VWS V14.00,2013-01-22 08:47:00,
2013-01-22 00:52:00,26.9,26.2,30.18,SSW,207,0.0,1.0,97,0.00,,---,0.00,VWS V14.00,2013-01-22 08:52:00,
2013-01-22 00:57:00,27.0,26.3,30.19,SSW,192,0.0,2.0,97,0.00,,---,0.00,VWS V14.00,2013-01-22 08:57:00,
2013-01-22 01:02:00,27.1,26.4,30.18,South,189,1.0,1.0,97,0.00,,---,0.00,VWS V14.00,2013-01-22 09:02:00,
2013-01-22 01:07:00,26.9,26.2,30.18,SSW,200,0.0,3.0,97,0.00,,---,0.00,VWS V14.00,2013-01-22 09:07:00,
2013-01-22 01:12:00,26.9,26.2,30.18,SSW,200,0.0,3.0,97,0.00,,---,0.00,VWS V14.00,2013-01-22 09:12:00,
2013-01-22 01:17:00,26.9,26.2,30.19,North,5,1.0,3.0,97,0.00,,---,0.00,VWS V14.00,2013-01-22 09:17:00,
2013-01-22 01:22:00,26.9,26.2,30.19,NE,40,0.0,3.0,97,0.00,,---,0.00,VWS V14.00,2013-01-22 09:22:00,
2013-01-22 01:27:00,26.9,26.2,30.18,NNE,22,0.0,3.0,97,0.00,,---,0.00,VWS V14.00,2013-01-22 09:27:00,
2013-01-22 01:32:00,26.8,26.1,30.18,NNE,33,0.0,1.0,97,0.00,,---,0.00,VWS V14.00,2013-01-22 09:32:00,
2013-01-22 01:37:00,26.7,26.0,30.19,NW,322,1.0,2.0,97,0.00,,---,0.00,VWS V14.00,2013-01-22 09:37:00,
2013-01-22 01:43:00,26.6,25.9,30.18,ENE,69,0.0,3.0,97,0.00,,---,0.00,VWS V14.00,2013-01-22 09:43:00,
2013-01-22 01:48:00,26.5,25.8,30.18,ENE,69,0.0,3.0,97,0.00,,---,0.00,VWS V14.00,2013-01-22 09:48:00,
2013-01-22 01:53:00,26.4,25.7,30.18,ENE,61,0.0,3.0,97,0.00,,---,0.00,VWS V14.00,2013-01-22 09:53:00,
2013-01-22 01:58:00,26.3,25.6,30.18,North,355,0.0,3.0,97,0.00,,---,0.00,VWS V14.00,2013-01-22 09:58:00,
2013-01-22 02:03:00,26.3,25.6,30.17,NW,325,0.0,0.0,97,0.00,,---,0.00,VWS V14.00,2013-01-22 10:03:00,
2013-01-22 02:08:00,26.3,25.6,30.18,WNW,300,0.0,2.0,97,0.00,,---,0.00,VWS V14.00,2013-01-22 10:08:00,
2013-01-22 02:13:00,26.3,25.6,30.18,WNW,300,0.0,2.0,97,0.00,,---,0.00,VWS V14.00,2013-01-22 10:13:00,
2013-01-22 02:18:00,26.3,25.6,30.18,WNW,300,0.0,2.0,97,0.00,,---,0.00,VWS V14.00,2013-01-22 10:18:00,
2013-01-22 02:23:00,26.4,25.7,30.18,WNW,300,0.0,2.0,97,0.00,,---,0.00,VWS V14.00,2013-01-22 10:23:00,
2013-01-22 02:28:00,26.4,25.7,30.18,NNE,17,0.0,2.0,97,0.00,,---,0.00,VWS V14.00,2013-01-22 10:28:00,
2013-01-22 02:33:00,26.3,25.6,30.18,North,355,0.0,1.0,97,0.00,,---,0.00,VWS V14.00,2013-01-22 10:33:00,
2013-01-22 02:38:00,26.2,25.5,30.18,NNW,341,0.0,2.0,97,0.00,,---,0.00,VWS V14.00,2013-01-22 10:38:00,
2013-01-22 02:43:00,26.0,25.3,30.17,NNW,348,0.0,2.0,97,0.00,,---,0.00,VWS V14.00,2013-01-22 10:43:00,
2013-01-22 02:48:00,25.9,25.2,30.17,NNW,348,0.0,2.0,97,0.00,,---,0.00,VWS V14.00,2013-01-22 10:48:00,
2013-01-22 02:53:00,25.9,25.2,30.17,NW,320,0.0,2.0,97,0.00,,---,0.00,VWS V14.00,2013-01-22 10:53:00,
2013-01-22 02:58:00,25.7,25.0,30.17,NW,323,0.0,2.0,97,0.00,,---,0.00,VWS V14.00,2013-01-22 10:58:00,
2013-01-22 03:03:00,25.6,24.9,30.17,NNW,339,0.0,0.0,97,0.00,,---,0.00,VWS V14.00,2013-01-22 11:03:00,
2013-01-22 03:08:00,25.6,24.9,30.17,NNW,341,0.0,3.0,97,0.00,,---,0.00,VWS V14.00,2013-01-22 11:08:00,
2013-01-22 03:13:00,25.6,24.9,30.17,NNW,342,0.0,3.0,97,0.00,,---,0.00,VWS V14.00,2013-01-22 11:13:00,
2013-01-22 03:18:00,25.4,24.7,30.17,ENE,63,0.0,3.0,97,0.00,,---,0.00,VWS V14.00,2013-01-22 11:18:00,
2013-01-22 03:23:00,25.3,24.6,30.17,NE,42,0.0,3.0,97,0.00,,---,0.00,VWS V14.00,2013-01-22 11:23:00,
2013-01-22 03:28:00,25.3,24.6,30.17,NW,323,0.0,3.0,97,0.00,,---,0.00,VWS V14.00,2013-01-22 11:28:00,
2013-01-22 03:33:00,25.2,24.5,30.17,North,5,0.0,0.0,97,0.00,,---,0.00,VWS V14.00,2013-01-22 11:33:00,
2013-01-22 03:38:00,25.2,24.5,30.17,North,355,0.0,1.0,97,0.00,,---,0.00,VWS V14.00,2013-01-22 11:38:00,
2013-01-22 03:43:00,25.2,24.5,30.17,NNW,334,2.0,2.0,97,0.00,,---,0.00,VWS V14.00,2013-01-22 11:43:00,
2013-01-22 03:48:00,25.2,24.5,30.17,NE,38,0.0,2.0,97,0.00,,---,0.00,VWS V14.00,2013-01-22 11:48:00,
2013-01-22 03:53:00,25.1,24.4,30.17,NE,41,0.0,2.0,97,0.00,,---,0.00,VWS V14.00,2013-01-22 11:53:00,
2013-01-22 03:58:00,25.1,24.4,30.17,North,360,0.0,2.0,97,0.00,,---,0.00,VWS V14.00,2013-01-22 11:58:00,
2013-01-22 04:03:00,25.1,24.4,30.16,North,355,0.0,0.0,97,0.00,,---,0.00,VWS V14.00,2013-01-22 12:03:00,
2013-01-22 04:08:00,25.1,24.4,30.16,NW,325,0.0,2.0,97,0.00,,---,0.00,VWS V14.00,2013-01-22 12:08:00,
2013-01-22 04:13:00,25.1,24.4,30.16,WNW,289,0.0,2.0,97,0.00,,---,0.00,VWS V14.00,2013-01-22 12:13:00,
2013-01-22 04:18:00,25.0,24.3,30.16,NNE,30,0.0,2.0,97,0.00,,---,0.00,VWS V14.00,2013-01-22 12:18:00,
2013-01-22 04:23:00,25.0,24.3,30.16,North,355,0.0,2.0,97,0.00,,---,0.00,VWS V14.00,2013-01-22 12:23:00,
2013-01-22 04:28:00,24.9,24.2,30.16,South,176,1.0,2.0,97,0.00,,---,0.00,VWS V14.00,2013-01-22 12:28:00,
2013-01-22 04:33:00,24.8,24.1,30.16,South,176,0.0,1.0,97,0.00,,---,0.00,VWS V14.00,2013-01-22 12:33:00,
2013-01-22 04:38:00,24.7,23.7,30.15,SSE,167,0.0,2.0,96,0.00,,---,0.00,VWS V14.00,2013-01-22 12:38:00,
2013-01-22 04:43:00,24.7,23.7,30.15,South,181,1.0,2.0,96,0.00,,---,0.00,VWS V14.00,2013-01-22 12:43:00,
2013-01-22 04:48:00,24.7,24.0,30.15,SW,221,0.0,2.0,97,0.00,,---,0.00,VWS V14.00,2013-01-22 12:48:00,
2013-01-22 04:53:00,24.7,24.0,30.14,SSW,201,0.0,2.0,97,0.00,,---,0.00,VWS V14.00,2013-01-22 12:53:00,
2013-01-22 04:58:00,24.8,24.1,30.14,South,173,2.0,2.0,97,0.00,,---,0.00,VWS V14.00,2013-01-22 12:58:00,
2013-01-22 05:04:00,24.6,23.6,30.14,SSW,194,1.0,2.0,96,0.00,,---,0.00,VWS V14.00,2013-01-22 13:04:00,
2013-01-22 05:09:00,24.4,23.4,30.14,South,191,1.0,2.0,96,0.00,,---,0.00,VWS V14.00,2013-01-22 13:09:00,
2013-01-22 05:14:00,24.4,23.4,30.14,South,176,0.0,2.0,96,0.00,,---,0.00,VWS V14.00,2013-01-22 13:14:00,
2013-01-22 05:19:00,24.3,23.6,30.14,SSW,204,0.0,2.0,97,0.00,,---,0.00,VWS V14.00,2013-01-22 13:19:00,
2013-01-22 05:24:00,24.3,23.3,30.14,SSW,207,0.0,2.0,96,0.00,,---,0.00,VWS V14.00,2013-01-22 13:24:00,
2013-01-22 05:29:00,24.3,23.6,30.15,NW,323,0.0,2.0,97,0.00,,---,0.00,VWS V14.00,2013-01-22 13:29:00,
2013-01-22 05:34:00,24.4,23.7,30.14,SW,235,1.0,1.0,97,0.00,,---,0.00,VWS V14.00,2013-01-22 13:34:00,
2013-01-22 05:39:00,24.5,23.8,30.15,WNW,284,0.0,2.0,97,0.00,,---,0.00,VWS V14.00,2013-01-22 13:39:00,
2013-01-22 05:44:00,24.5,23.8,30.15,NNE,22,0.0,2.0,97,0.00,,---,0.00,VWS V14.00,2013-01-22 13:44:00,
2013-01-22 05:49:00,24.7,24.0,30.15,East,101,0.0,2.0,97,0.00,,---,0.00,VWS V14.00,2013-01-22 13:49:00,
2013-01-22 05:54:00,24.7,24.0,30.15,East,101,0.0,2.0,97,0.00,,---,0.00,VWS V14.00,2013-01-22 13:54:00,
2013-01-22 05:59:00,24.9,24.2,30.15,East,92,0.0,2.0,97,0.00,,---,0.00,VWS V14.00,2013-01-22 13:59:00,
2013-01-22 06:04:00,25.0,24.3,30.14,ENE,61,0.0,2.0,97,0.00,,---,0.00,VWS V14.00,2013-01-22 14:04:00,
2013-01-22 06:09:00,25.0,24.3,30.14,ENE,61,0.0,2.0,97,0.00,,---,0.00,VWS V14.00,2013-01-22 14:09:00,
2013-01-22 06:15:00,25.1,24.4,30.14,ENE,61,0.0,2.0,97,0.00,,---,0.00,VWS V14.00,2013-01-22 14:15:00,
2013-01-22 06:20:00,25.2,24.5,30.14,ENE,61,0.0,2.0,97,0.00,,---,0.00,VWS V14.00,2013-01-22 14:20:00,
2013-01-22 06:25:00,25.4,24.7,30.14,ENE,61,0.0,2.0,97,0.00,,---,0.00,VWS V14.00,2013-01-22 14:25:00,
2013-01-22 06:30:00,25.4,24.7,30.14,ENE,61,0.0,2.0,97,0.00,,---,0.00,VWS V14.00,2013-01-22 14:30:00,
2013-01-22 06:35:00,25.4,24.7,30.14,ENE,61,0.0,0.0,97,0.00,,---,0.00,VWS V14.00,2013-01-22 14:35:00,
2013-01-22 06:40:00,25.5,24.8,30.14,SSW,194,0.0,2.0,97,0.00,,---,0.00,VWS V14.00,2013-01-22 14:40:00,
2013-01-22 06:45:00,25.5,24.8,30.14,ESE,121,0.0,2.0,97,0.00,,---,0.00,VWS V14.00,2013-01-22 14:45:00,
2013-01-22 06:50:00,25.5,24.8,30.13,ESE,116,0.0,2.0,97,0.00,,---,0.00,VWS V14.00,2013-01-22 14:50:00,
2013-01-22 06:55:00,25.5,24.8,30.13,ESE,119,1.0,2.0,97,0.00,,---,0.00,VWS V14.00,2013-01-22 14:55:00,
2013-01-22 07:00:00,25.4,24.7,30.13,ESE,119,0.0,2.0,97,0.00,,---,0.00,VWS V14.00,2013-01-22 15:00:00,
2013-01-22 07:05:00,25.5,24.8,30.13,ESE,119,0.0,0.0,97,0.00,,---,0.00,VWS V14.00,2013-01-22 15:05:00,
2013-01-22 07:10:00,25.5,24.8,30.12,ENE,76,1.0,2.0,97,0.00,,---,0.00,VWS V14.00,2013-01-22 15:10:00,
2013-01-22 07:15:00,25.5,24.8,30.13,SSW,203,0.0,2.0,97,0.00,,---,0.00,VWS V14.00,2013-01-22 15:15:00,
2013-01-22 07:20:00,25.5,24.8,30.12,SSW,204,0.0,2.0,97,0.00,,---,0.00,VWS V14.00,2013-01-22 15:20:00,
2013-01-22 07:25:00,25.5,24.8,30.12,NW,314,0.0,2.0,97,0.00,,---,0.00,VWS V14.00,2013-01-22 15:25:00,
2013-01-22 07:30:00,25.4,24.7,30.12,NE,38,0.0,2.0,97,0.00,,---,0.00,VWS V14.00,2013-01-22 15:30:00,
2013-01-22 07:35:00,25.4,24.7,30.13,NE,38,1.0,1.0,97,0.00,,---,0.00,VWS V14.00,2013-01-22 15:35:00,
2013-01-22 07:40:00,25.2,24.2,30.13,NE,49,0.0,2.0,96,0.00,,---,0.00,VWS V14.00,2013-01-22 15:40:00,
2013-01-22 07:45:00,25.2,24.5,30.12,NE,49,0.0,2.0,97,0.00,,---,0.00,VWS V14.00,2013-01-22 15:45:00,
2013-01-22 07:50:00,25.1,24.4,30.12,NE,49,0.0,2.0,97,0.00,,---,0.00,VWS V14.00,2013-01-22 15:50:00,
2013-01-22 07:55:00,25.1,24.4,30.13,NE,42,0.0,2.0,97,0.00,,---,0.00,VWS V14.00,2013-01-22 15:55:00,
2013-01-22 08:00:00,25.2,24.5,30.13,NE,42,0.0,2.0,97,0.00,,---,0.00,VWS V14.00,2013-01-22 16:00:00,
2013-01-22 08:05:00,25.2,24.5,30.13,NE,42,0.0,0.0,97,0.00,,---,0.00,VWS V14.00,2013-01-22 16:05:00,
2013-01-22 08:10:00,25.3,24.6,30.13,NNE,16,0.0,2.0,97,0.00,,---,0.00,VWS V14.00,2013-01-22 16:10:00,
2013-01-22 08:15:00,25.3,24.6,30.14,NNE,16,0.0,2.0,97,0.00,,---,0.00,VWS V14.00,2013-01-22 16:15:00,
2013-01-22 08:20:00,25.3,24.6,30.14,NNE,19,0.0,2.0,97,0.00,,---,0.00,VWS V14.00,2013-01-22 16:20:00,
2013-01-22 08:25:00,25.4,24.7,30.14,NE,34,0.0,2.0,97,0.00,,---,0.00,VWS V14.00,2013-01-22 16:25:00,
2013-01-22 08:30:00,25.6,24.9,30.14,NE,34,0.0,2.0,97,0.00,,---,0.00,VWS V14.00,2013-01-22 16:30:00,
2013-01-22 08:35:00,25.6,24.9,30.14,SSW,206,1.0,2.0,97,0.00,,---,0.00,VWS V14.00,2013-01-22 16:35:00,
2013-01-22 08:40:00,25.7,25.0,30.14,South,178,0.0,2.0,97,0.00,,---,0.00,VWS V14.00,2013-01-22 16:40:00,
2013-01-22 08:45:00,25.7,25.0,30.14,South,178,0.0,2.0,97,0.00,,---,0.00,VWS V14.00,2013-01-22 16:45:00,
2013-01-22 08:50:00,25.7,25.0,30.14,SSE,157,0.0,2.0,97,0.00,,---,0.00,VWS V14.00,2013-01-22 16:50:00,
2013-01-22 08:55:00,25.6,24.9,30.14,SSE,158,1.0,2.0,97,0.00,,---,0.00,VWS V14.00,2013-01-22 16:55:00,
2013-01-22 09:00:00,25.6,24.9,30.14,South,190,1.0,2.0,97,0.00,,---,0.00,VWS V14.00,2013-01-22 17:00:00,
2013-01-22 09:05:00,25.5,24.8,30.14,South,182,0.0,2.0,97,0.00,,---,0.00,VWS V14.00,2013-01-22 17:05:00,
2013-01-22 09:10:00,25.4,24.7,30.14,SSE,148,1.0,4.0,97,0.00,,---,0.00,VWS V14.00,2013-01-22 17:10:00,
2013-01-22 09:15:00,25.3,24.6,30.14,South,177,2.0,4.0,97,0.00,,---,0.00,VWS V14.00,2013-01-22 17:15:00,
2013-01-22 09:20:00,25.2,24.5,30.14,SSE,164,0.0,4.0,97,0.00,,---,0.00,VWS V14.00,2013-01-22 17:20:00,
2013-01-22 09:25:00,25.2,24.5,30.14,East,93,0.0,4.0,97,0.00,,---,0.00,VWS V14.00,2013-01-22 17:25:00,
2013-01-22 09:30:00,25.2,24.5,30.13,SSW,194,0.0,4.0,97,0.00,,---,0.00,VWS V14.00,2013-01-22 17:30:00,
2013-01-22 09:35:00,25.2,24.5,30.13,South,183,0.0,1.0,97,0.00,,---,0.00,VWS V14.00,2013-01-22 17:35:00,
2013-01-22 09:40:00,25.2,24.5,30.13,SSE,159,0.0,1.0,97,0.00,,---,0.00,VWS V14.00,2013-01-22 17:40:00,
2013-01-22 09:45:00,25.3,24.6,30.14,SSE,159,0.0,1.0,97,0.00,,---,0.00,VWS V14.00,2013-01-22 17:45:00,
2013-01-22 09:50:00,25.4,24.7,30.14,SSE,159,0.0,1.0,97,0.00,,---,0.00,VWS V14.00,2013-01-22 17:50:00,
2013-01-22 09:55:00,25.4,24.7,30.14,SSE,159,0.0,1.0,97,0.00,,---,0.00,VWS V14.00,2013-01-22 17:55:00,
2013-01-22 10:00:00,25.5,24.8,30.14,NNE,33,0.0,1.0,97,0.00,,---,0.00,VWS V14.00,2013-01-22 18:00:00,
2013-01-22 10:05:00,25.7,25.0,30.14,NNE,33,1.0,2.0,97,0.00,,---,0.00,VWS V14.00,2013-01-22 18:05:00,
2013-01-22 10:11:00,25.9,25.2,30.14,NE,35,0.0,2.0,97,0.00,,---,0.00,VWS V14.00,2013-01-22 18:11:00,
2013-01-22 10:16:00,25.9,25.2,30.13,NE,35,0.0,2.0,97,0.00,,---,0.00,VWS V14.00,2013-01-22 18:16:00,
2013-01-22 10:21:00,25.8,25.1,30.13,ENE,59,0.0,2.0,97,0.00,,---,0.00,VWS V14.00,2013-01-22 18:21:00,
2013-01-22 10:25:00,25.8,25.1,30.14,North,5,0.0,2.0,97,0.00,,---,0.00,VWS V14.00,2013-01-22 18:25:00,
2013-01-22 10:31:00,25.8,25.1,30.15,South,184,1.0,3.0,97,0.00,,---,0.00,VWS V14.00,2013-01-22 18:31:00,
2013-01-22 10:36:00,25.8,25.1,30.14,SSE,148,1.0,1.0,97,0.00,,---,0.00,VWS V14.00,2013-01-22 18:36:00,
2013-01-22 10:41:00,26.0,25.3,30.15,SSE,148,0.0,2.0,97,0.00,,---,0.00,VWS V14.00,2013-01-22 18:41:00,
2013-01-22 10:46:00,26.1,25.4,30.14,SSE,148,0.0,2.0,97,0.00,,---,0.00,VWS V14.00,2013-01-22 18:46:00,
2013-01-22 10:51:00,26.3,25.6,30.14,SSE,148,0.0,2.0,97,0.00,,---,0.00,VWS V14.00,2013-01-22 18:51:00,
2013-01-22 10:56:00,26.4,25.7,30.14,SW,215,1.0,2.0,97,0.00,,---,0.00,VWS V14.00,2013-01-22 18:56:00,
2013-01-22 11:01:00,26.5,25.8,30.15,SSW,205,1.0,2.0,97,0.00,,---,0.00,VWS V14.00,2013-01-22 19:01:00,
2013-01-22 11:06:00,26.6,25.9,30.15,SSW,200,1.0,1.0,97,0.00,,---,0.00,VWS V14.00,2013-01-22 19:06:00,
2013-01-22 11:11:00,26.7,26.0,30.15,SSE,168,0.0,1.0,97,0.00,,---,0.00,VWS V14.00,2013-01-22 19:11:00,
2013-01-22 11:16:00,26.9,26.2,30.14,SSE,163,1.0,2.0,97,0.00,,---,0.00,VWS V14.00,2013-01-22 19:16:00,
2013-01-22 11:21:00,26.9,26.2,30.14,SSE,163,0.0,2.0,97,0.00,,---,0.00,VWS V14.00,2013-01-22 19:21:00,
2013-01-22 11:26:00,27.0,26.3,30.13,ESE,116,0.0,2.0,97,0.00,,---,0.00,VWS V14.00,2013-01-22 19:26:00,
2013-01-22 11:31:00,27.1,26.4,30.13,East,84,0.0,2.0,97,0.00,,---,0.00,VWS V14.00,2013-01-22 19:31:00,
2013-01-22 11:37:00,27.0,26.3,30.13,ESE,110,0.0,0.0,97,0.00,,---,0.00,VWS V14.00,2013-01-22 19:37:00,
2013-01-22 11:42:00,27.0,26.3,30.12,SSE,158,0.0,2.0,97,0.00,,---,0.00,VWS V14.00,2013-01-22 19:42:00,
2013-01-22 11:47:00,27.0,26.3,30.12,SSE,160,0.0,2.0,97,0.00,,---,0.00,VWS V14.00,2013-01-22 19:47:00,
2013-01-22 11:52:00,27.0,26.3,30.12,SSW,209,0.0,2.0,97,0.00,,---,0.00,VWS V14.00,2013-01-22 19:52:00,
2013-01-22 11:57:00,27.0,26.3,30.11,SE,141,0.0,2.0,97,0.00,,---,0.00,VWS V14.00,2013-01-22 19:57:00,
2013-01-22 12:02:00,27.1,26.4,30.11,South,173,0.0,2.0,97,0.00,,---,0.00,VWS V14.00,2013-01-22 20:02:00,
2013-01-22 12:07:00,27.1,26.4,30.11,South,188,0.0,2.0,97,0.00,,---,0.00,VWS V14.00,2013-01-22 20:07:00,
2013-01-22 12:12:00,27.2,26.5,30.10,South,188,0.0,2.0,97,0.00,,---,0.00,VWS V14.00,2013-01-22 20:12:00,
2013-01-22 12:17:00,27.6,26.9,30.10,East,94,1.0,2.0,97,0.00,,---,0.00,VWS V14.00,2013-01-22 20:17:00,
2013-01-22 12:22:00,27.9,27.4,30.09,North,355,1.0,2.0,98,0.00,,---,0.00,VWS V14.00,2013-01-22 20:22:00,
2013-01-22 12:27:00,28.2,27.7,30.09,West,275,0.0,2.0,98,0.00,,---,0.00,VWS V14.00,2013-01-22 20:27:00,
2013-01-22 12:32:00,28.4,27.9,30.09,NW,317,0.0,0.0,98,0.00,,---,0.00,VWS V14.00,2013-01-22 20:32:00,
2013-01-22 12:37:00,28.7,28.2,30.09,NE,51,0.0,1.0,98,0.00,,---,0.00,VWS V14.00,2013-01-22 20:37:00,
2013-01-22 12:42:00,28.8,28.3,30.09,ENE,69,0.0,2.0,98,0.00,,---,0.00,VWS V14.00,2013-01-22 20:42:00,
2013-01-22 12:47:00,28.8,28.3,30.09,ENE,58,0.0,2.0,98,0.00,,---,0.00,VWS V14.00,2013-01-22 20:47:00,
2013-01-22 12:52:00,28.9,28.4,30.09,East,101,0.0,2.0,98,0.00,,---,0.00,VWS V14.00,2013-01-22 20:52:00,
2013-01-22 12:57:00,29.0,28.5,30.08,East,101,0.0,2.0,98,0.00,,---,0.00,VWS V14.00,2013-01-22 20:57:00,
2013-01-22 13:02:00,29.1,28.6,30.08,East,101,0.0,0.0,98,0.00,,---,0.00,VWS V14.00,2013-01-22 21:02:00,
2013-01-22 13:07:00,29.3,28.8,30.08,ENE,70,1.0,2.0,98,0.00,,---,0.00,VWS V14.00,2013-01-22 21:07:00,
2013-01-22 13:13:00,29.6,29.1,30.08,NNE,29,0.0,2.0,98,0.00,,---,0.00,VWS V14.00,2013-01-22 21:13:00,
2013-01-22 13:18:00,29.7,29.2,30.07,WNW,282,0.0,2.0,98,0.00,,---,0.00,VWS V14.00,2013-01-22 21:18:00,
2013-01-22 13:23:00,30.0,29.5,30.07,WNW,282,0.0,2.0,98,0.00,,---,0.00,VWS V14.00,2013-01-22 21:23:00,
2013-01-22 13:28:00,30.3,29.8,30.07,NE,42,0.0,2.0,98,0.00,,---,0.00,VWS V14.00,2013-01-22 21:28:00,
2013-01-22 13:31:00,30.4,29.9,30.07,WNW,284,1.0,2.0,98,0.00,,---,0.00,VWS V14.00,2013-01-22 21:31:00,
2013-01-22 13:36:00,30.6,30.1,30.08,SSE,167,1.0,2.0,98,0.00,,---,0.00,VWS V14.00,2013-01-22 21:36:00,
2013-01-22 13:41:00,30.7,30.2,30.07,ESE,108,0.0,2.0,98,0.00,,---,0.00,VWS V14.00,2013-01-22 21:41:00,
2013-01-22 13:46:00,30.8,30.3,30.06,ENE,63,0.0,2.0,98,0.00,,---,0.00,VWS V14.00,2013-01-22 21:46:00,
2013-01-22 13:51:00,31.0,30.5,30.06,ENE,65,0.0,2.0,98,0.00,,---,0.00,VWS V14.00,2013-01-22 21:51:00,
2013-01-22 13:56:00,31.3,30.8,30.06,NNW,341,0.0,2.0,98,0.00,,---,0.00,VWS V14.00,2013-01-22 21:56:00,
2013-01-22 14:01:00,31.4,30.9,30.05,West,268,0.0,2.0,98,0.00,,---,0.00,VWS V14.00,2013-01-22 22:01:00,
2013-01-22 14:07:00,31.6,31.1,30.05,West,267,0.0,0.0,98,0.00,,---,0.00,VWS V14.00,2013-01-22 22:07:00,
2013-01-22 14:12:00,31.6,31.1,30.05,NW,317,0.0,2.0,98,0.00,,---,0.00,VWS V14.00,2013-01-22 22:12:00,
2013-01-22 14:17:00,31.7,31.2,30.05,NE,52,1.0,2.0,98,0.00,,---,0.00,VWS V14.00,2013-01-22 22:17:00,
2013-01-22 14:22:00,31.7,31.2,30.05,NE,52,0.0,2.0,98,0.00,,---,0.00,VWS V14.00,2013-01-22 22:22:00,
2013-01-22 14:27:00,31.8,31.3,30.05,NW,316,0.0,2.0,98,0.00,,---,0.00,VWS V14.00,2013-01-22 22:27:00,
2013-01-22 14:32:00,31.9,31.4,30.05,NW,313,0.0,0.0,98,0.00,,---,0.00,VWS V14.00,2013-01-22 22:32:00,
2013-01-22 14:37:00,32.1,31.6,30.05,WNW,303,0.0,1.0,98,0.00,,---,0.00,VWS V14.00,2013-01-22 22:37:00,
2013-01-22 14:42:00,32.1,31.6,30.04,NW,304,0.0,1.0,98,0.00,,---,0.00,VWS V14.00,2013-01-22 22:42:00,
2013-01-22 14:47:00,32.3,31.8,30.04,NW,304,0.0,1.0,98,0.00,,---,0.00,VWS V14.00,2013-01-22 22:47:00,
2013-01-22 14:52:00,32.4,31.9,30.03,NNW,344,0.0,3.0,98,0.00,,---,0.00,VWS V14.00,2013-01-22 22:52:00,
2013-01-22 14:57:00,32.5,32.2,30.04,NW,304,1.0,3.0,99,0.00,,---,0.00,VWS V14.00,2013-01-22 22:57:00,
2013-01-22 15:02:00,32.6,32.1,30.04,NNE,24,0.0,0.0,98,0.00,,---,0.00,VWS V14.00,2013-01-22 23:02:00,
2013-01-22 15:07:00,32.7,32.2,30.04,NNE,17,0.0,0.0,98,0.00,,---,0.00,VWS V14.00,2013-01-22 23:07:00,
2013-01-22 15:12:00,32.9,32.4,30.04,NNE,17,0.0,0.0,98,0.00,,---,0.00,VWS V14.00,2013-01-22 23:12:00,
2013-01-22 15:17:00,33.0,32.5,30.03,North,10,0.0,1.0,98,0.00,,---,0.00,VWS V14.00,2013-01-22 23:17:00,
2013-01-22 15:22:00,33.3,32.8,30.03,NW,320,0.0,2.0,98,0.00,,---,0.00,VWS V14.00,2013-01-22 23:22:00,
2013-01-22 15:27:00,33.4,32.9,30.03,NW,312,0.0,3.0,98,0.00,,---,0.00,VWS V14.00,2013-01-22 23:27:00,
2013-01-22 15:32:00,33.6,33.1,30.03,NW,323,1.0,2.0,98,0.00,,---,0.00,VWS V14.00,2013-01-22 23:32:00,
2013-01-22 15:37:00,33.7,33.2,30.03,NW,323,0.0,2.0,98,0.00,,---,0.00,VWS V14.00,2013-01-22 23:37:00,
2013-01-22 15:42:00,33.8,33.3,30.03,NNW,348,0.0,2.0,98,0.00,,---,0.00,VWS V14.00,2013-01-22 23:42:00,
2013-01-22 15:47:00,33.9,33.4,30.02,NNW,348,0.0,2.0,98,0.00,,---,0.00,VWS V14.00,2013-01-22 23:47:00,
2013-01-22 15:52:00,33.7,33.2,30.03,WNW,303,0.0,2.0,98,0.00,,---,0.00,VWS V14.00,2013-01-22 23:52:00,
2013-01-22 15:57:00,33.7,33.2,30.03,WNW,303,0.0,2.0,98,0.00,,---,0.00,VWS V14.00,2013-01-22 23:57:00,
2013-01-22 16:02:00,33.5,33.0,30.03,NW,304,0.0,0.0,98,0.00,,---,0.00,VWS V14.00,2013-01-23 00:02:00,
2013-01-22 16:07:00,33.2,32.7,30.03,NW,304,0.0,0.0,98,0.00,,---,0.00,VWS V14.00,2013-01-23 00:07:00,
2013-01-22 16:12:00,32.9,32.4,30.03,NW,304,1.0,1.0,98,0.00,,---,0.00,VWS V14.00,2013-01-23 00:12:00,
2013-01-22 16:17:00,32.4,31.9,30.03,NW,306,0.0,1.0,98,0.00,,---,0.00,VWS V14.00,2013-01-23 00:17:00,
2013-01-22 16:22:00,32.2,31.7,30.03,NW,306,0.0,1.0,98,0.00,,---,0.00,VWS V14.00,2013-01-23 00:22:00,
2013-01-22 16:27:00,32.0,31.5,30.03,NW,306,0.0,1.0,98,0.00,,---,0.00,VWS V14.00,2013-01-23 00:27:00,
2013-01-22 16:33:00,31.9,31.4,30.03,NW,306,0.0,0.0,98,0.00,,---,0.00,VWS V14.00,2013-01-23 00:33:00,
2013-01-22 16:38:00,31.8,31.3,30.03,NW,306,0.0,0.0,98,0.00,,---,0.00,VWS V14.00,2013-01-23 00:38:00,
2013-01-22 16:43:00,31.7,31.2,30.02,NW,306,0.0,0.0,98,0.00,,---,0.00,VWS V14.00,2013-01-23 00:43:00,
2013-01-22 16:48:00,31.7,31.2,30.02,NW,306,0.0,0.0,98,0.00,,---,0.00,VWS V14.00,2013-01-23 00:48:00,
2013-01-22 16:53:00,31.7,31.2,30.02,NW,306,0.0,0.0,98,0.00,,---,0.00,VWS V14.00,2013-01-23 00:53:00,
2013-01-22 16:58:00,31.7,31.2,30.02,NW,306,0.0,0.0,98,0.00,,---,0.00,VWS V14.00,2013-01-23 00:58:00,
2013-01-22 17:03:00,31.7,31.2,30.02,NW,306,0.0,0.0,98,0.00,,---,0.00,VWS V14.00,2013-01-23 01:03:00,
2013-01-22 17:08:00,31.7,31.2,30.02,NW,306,0.0,0.0,98,0.00,,---,0.00,VWS V14.00,2013-01-23 01:08:00,
2013-01-22 17:13:00,31.7,31.2,30.01,NW,306,0.0,0.0,98,0.00,,---,0.00,VWS V14.00,2013-01-23 01:13:00,
2013-01-22 17:18:00,31.7,31.2,30.01,NW,306,0.0,0.0,98,0.00,,---,0.00,VWS V14.00,2013-01-23 01:18:00,
2013-01-22 17:23:00,31.7,31.2,30.01,NW,306,0.0,0.0,98,0.00,,---,0.00,VWS V14.00,2013-01-23 01:23:00,
2013-01-22 17:28:00,31.7,31.2,30.02,NW,306,0.0,0.0,98,0.00,,---,0.00,VWS V14.00,2013-01-23 01:28:00,
2013-01-22 17:33:00,31.7,31.2,30.01,NW,306,0.0,0.0,98,0.00,,---,0.00,VWS V14.00,2013-01-23 01:33:00,
2013-01-22 17:38:00,31.7,31.2,30.00,NW,306,0.0,0.0,98,0.00,,---,0.00,VWS V14.00,2013-01-23 01:38:00,
2013-01-22 17:43:00,31.6,31.1,30.00,NW,306,0.0,0.0,98,0.00,,---,0.00,VWS V14.00,2013-01-23 01:43:00,
2013-01-22 17:48:00,31.6,31.1,30.01,NW,306,0.0,0.0,98,0.00,,---,0.00,VWS V14.00,2013-01-23 01:48:00,
2013-01-22 17:53:00,31.7,31.2,30.00,NW,306,0.0,0.0,98,0.00,,---,0.00,VWS V14.00,2013-01-23 01:53:00,
2013-01-22 17:58:00,31.7,31.2,30.00,NW,306,0.0,0.0,98,0.00,,---,0.00,VWS V14.00,2013-01-23 01:58:00,
2013-01-22 18:03:00,31.8,31.3,30.00,NW,306,0.0,0.0,98,0.00,,---,0.00,VWS V14.00,2013-01-23 02:03:00,
2013-01-22 18:08:00,31.8,31.3,30.00,WSW,238,0.0,1.0,98,0.00,,---,0.00,VWS V14.00,2013-01-23 02:08:00,
2013-01-22 18:13:00,31.8,31.3,30.00,SW,229,1.0,3.0,98,0.00,,---,0.00,VWS V14.00,2013-01-23 02:13:00,
2013-01-22 18:18:00,31.8,31.3,30.00,SW,228,0.0,3.0,98,0.00,,---,0.00,VWS V14.00,2013-01-23 02:18:00,
2013-01-22 18:23:00,31.8,31.3,30.00,SW,228,0.0,3.0,98,0.00,,---,0.00,VWS V14.00,2013-01-23 02:23:00,
2013-01-22 18:28:00,31.8,31.3,29.99,SSW,197,1.0,3.0,98,0.00,,---,0.00,VWS V14.00,2013-01-23 02:28:00,
2013-01-22 18:33:00,31.8,31.3,29.99,South,187,0.0,1.0,98,0.00,,---,0.00,VWS V14.00,2013-01-23 02:33:00,
2013-01-22 18:38:00,31.7,31.2,29.99,South,187,0.0,1.0,98,0.00,,---,0.00,VWS V14.00,2013-01-23 02:38:00,
2013-01-22 18:43:00,31.6,31.4,29.99,South,175,0.0,2.0,99,0.00,,---,0.00,VWS V14.00,2013-01-23 02:43:00,
2013-01-22 18:48:00,31.6,31.4,29.99,South,175,0.0,2.0,99,0.00,,---,0.00,VWS V14.00,2013-01-23 02:48:00,
2013-01-22 18:53:00,31.6,31.4,29.99,South,175,0.0,2.0,99,0.00,,---,0.00,VWS V14.00,2013-01-23 02:53:00,
2013-01-22 18:58:00,31.5,31.2,29.99,South,175,0.0,2.0,99,0.00,,---,0.00,VWS V14.00,2013-01-23 02:58:00,
2013-01-22 19:03:00,31.5,31.2,29.99,South,175,0.0,2.0,99,0.00,,---,0.00,VWS V14.00,2013-01-23 03:03:00,
2013-01-22 19:08:00,31.5,31.2,30.00,South,183,1.0,2.0,99,0.00,,---,0.00,VWS V14.00,2013-01-23 03:08:00,
2013-01-22 19:13:00,31.5,31.2,29.99,South,181,0.0,2.0,99,0.00,,---,0.00,VWS V14.00,2013-01-23 03:13:00,
2013-01-22 19:18:00,31.5,31.2,29.99,South,181,0.0,2.0,99,0.00,,---,0.00,VWS V14.00,2013-01-23 03:18:00,
2013-01-22 19:23:00,31.5,31.2,29.99,South,181,0.0,2.0,99,0.00,,---,0.00,VWS V14.00,2013-01-23 03:23:00,
2013-01-22 19:28:00,31.4,30.9,29.99,South,181,1.0,2.0,98,0.00,,---,0.00,VWS V14.00,2013-01-23 03:28:00,
2013-01-22 19:33:00,31.3,30.8,29.99,South,181,0.0,0.0,98,0.00,,---,0.00,VWS V14.00,2013-01-23 03:33:00,
2013-01-22 19:38:00,31.3,30.8,29.99,South,181,0.0,0.0,98,0.00,,---,0.00,VWS V14.00,2013-01-23 03:38:00,
2013-01-22 19:43:00,31.3,30.8,29.98,South,181,0.0,0.0,98,0.00,,---,0.00,VWS V14.00,2013-01-23 03:43:00,
2013-01-22 19:48:00,31.4,30.9,29.99,South,181,0.0,0.0,98,0.00,,---,0.00,VWS V14.00,2013-01-23 03:48:00,
2013-01-22 19:53:00,31.3,30.8,29.99,SW,217,0.0,2.0,98,0.00,,---,0.00,VWS V14.00,2013-01-23 03:53:00,
2013-01-22 19:58:00,31.4,30.9,29.99,SW,217,0.0,2.0,98,0.00,,---,0.00,VWS V14.00,2013-01-23 03:58:00,
2013-01-22 20:03:00,31.3,30.8,29.99,SSW,205,0.0,2.0,98,0.00,,---,0.00,VWS V14.00,2013-01-23 04:03:00,
2013-01-22 20:08:00,31.2,30.7,29.99,SSW,205,0.0,2.0,98,0.00,,---,0.00,VWS V14.00,2013-01-23 04:08:00,
2013-01-22 20:14:00,31.2,30.7,29.98,SSW,205,0.0,2.0,98,0.00,,---,0.00,VWS V14.00,2013-01-23 04:14:00,
2013-01-22 20:19:00,31.1,30.6,29.98,SSW,205,0.0,2.0,98,0.00,,---,0.00,VWS V14.00,2013-01-23 04:19:00,
2013-01-22 20:24:00,31.1,30.6,29.97,SSW,205,0.0,2.0,98,0.00,,---,0.00,VWS V14.00,2013-01-23 04:24:00,
2013-01-22 20:29:00,31.1,30.6,29.97,SSW,200,2.0,3.0,98,0.00,,---,0.00,VWS V14.00,2013-01-23 04:29:00,
2013-01-22 20:34:00,31.0,30.5,29.98,SSW,209,2.0,3.0,98,0.00,,---,0.00,VWS V14.00,2013-01-23 04:34:00,
2013-01-22 20:39:00,30.9,30.4,29.99,South,180,2.0,4.0,98,0.00,,---,0.00,VWS V14.00,2013-01-23 04:39:00,
2013-01-22 20:44:00,30.8,30.3,29.99,SSW,196,0.0,4.0,98,0.00,,---,0.00,VWS V14.00,2013-01-23 04:44:00,
2013-01-22 20:49:00,30.8,30.3,29.98,SW,220,0.0,4.0,98,0.00,,---,0.00,VWS V14.00,2013-01-23 04:49:00,
2013-01-22 20:54:00,30.8,30.3,29.98,SW,220,0.0,4.0,98,0.00,,---,0.00,VWS V14.00,2013-01-23 04:54:00,
2013-01-22 20:59:00,30.8,30.3,29.98,South,188,2.0,4.0,98,0.00,,---,0.00,VWS V14.00,2013-01-23 04:59:00,
2013-01-22 21:00:00,30.8,30.3,29.98,South,188,2.0,4.0,98,0.00,,---,0.00,VWS V14.00,2013-01-23 05:00:00,
2013-01-22 21:01:00,30.8,30.3,29.98,South,188,0.0,4.0,98,0.00,,---,0.00,VWS V14.00,2013-01-23 05:01:00,
2013-01-22 21:03:00,30.8,30.3,29.98,South,188,1.0,1.0,98,0.00,,---,0.00,VWS V14.00,2013-01-23 05:03:00,
2013-01-22 21:08:00,30.8,30.3,29.97,South,188,1.0,1.0,98,0.00,,---,0.00,VWS V14.00,2013-01-23 05:08:00,
2013-01-22 21:13:00,30.8,30.3,29.97,South,188,0.0,2.0,98,0.00,,---,0.00,VWS V14.00,2013-01-23 05:13:00,
2013-01-22 21:18:00,30.8,30.3,29.98,South,191,0.0,3.0,98,0.00,,---,0.00,VWS V14.00,2013-01-23 05:18:00,
2013-01-22 21:23:00,30.7,30.2,29.97,SSE,147,0.0,3.0,98,0.00,,---,0.00,VWS V14.00,2013-01-23 05:23:00,
2013-01-22 21:28:00,30.8,30.3,29.97,South,175,1.0,3.0,98,0.00,,---,0.00,VWS V14.00,2013-01-23 05:28:00,
2013-01-22 21:33:00,30.7,30.2,29.97,South,182,2.0,2.0,98,0.00,,---,0.00,VWS V14.00,2013-01-23 05:33:00,
2013-01-22 21:38:00,30.8,30.3,29.97,SSW,207,1.0,3.0,98,0.00,,---,0.00,VWS V14.00,2013-01-23 05:38:00,
2013-01-22 21:43:00,30.7,30.2,29.97,SE,146,0.0,3.0,98,0.00,,---,0.00,VWS V14.00,2013-01-23 05:43:00,
2013-01-22 21:48:00,30.7,30.2,29.97,East,93,0.0,3.0,98,0.00,,---,0.00,VWS V14.00,2013-01-23 05:48:00,
2013-01-22 21:53:00,30.7,30.2,29.98,SSW,198,2.0,3.0,98,0.00,,---,0.00,VWS V14.00,2013-01-23 05:53:00,
2013-01-22 21:58:00,30.7,30.2,29.97,South,185,0.0,3.0,98,0.00,,---,0.00,VWS V14.00,2013-01-23 05:58:00,
2013-01-22 22:03:00,30.7,30.2,29.97,SSW,194,0.0,0.0,98,0.00,,---,0.00,VWS V14.00,2013-01-23 06:03:00,
2013-01-22 22:08:00,30.7,30.2,29.98,SSE,154,2.0,3.0,98,0.00,,---,0.00,VWS V14.00,2013-01-23 06:08:00,
2013-01-22 22:13:00,30.7,30.2,29.99,South,180,0.0,3.0,98,0.00,,---,0.00,VWS V14.00,2013-01-23 06:13:00,
2013-01-22 22:18:00,30.8,30.3,29.98,SSE,158,1.0,3.0,98,0.00,,---,0.00,VWS V14.00,2013-01-23 06:18:00,
2013-01-22 22:23:00,30.8,30.3,29.98,SSW,192,0.0,3.0,98,0.00,,---,0.00,VWS V14.00,2013-01-23 06:23:00,
2013-01-22 22:28:00,30.8,30.3,29.98,ESE,113,0.0,3.0,98,0.00,,---,0.00,VWS V14.00,2013-01-23 06:28:00,
2013-01-22 22:33:00,30.8,30.5,29.99,South,187,2.0,2.0,99,0.00,,---,0.00,VWS V14.00,2013-01-23 06:33:00,
2013-01-22 22:38:00,30.8,30.5,29.99,SSE,157,1.0,3.0,99,0.00,,---,0.00,VWS V14.00,2013-01-23 06:38:00,
2013-01-22 22:43:00,30.9,30.6,29.99,SSE,161,0.0,3.0,99,0.00,,---,0.00,VWS V14.00,2013-01-23 06:43:00,
2013-01-22 22:48:00,30.9,30.6,29.99,South,188,0.0,3.0,99,0.00,,---,0.00,VWS V14.00,2013-01-23 06:48:00,
2013-01-22 22:53:00,30.9,30.4,29.99,South,169,1.0,3.0,98,0.00,,---,0.00,VWS V14.00,2013-01-23 06:53:00,
2013-01-22 22:58:00,30.8,30.5,29.99,South,169,0.0,3.0,99,0.00,,---,0.00,VWS V14.00,2013-01-23 06:58:00,
2013-01-22 23:03:00,30.8,30.5,29.99,SE,128,0.0,0.0,99,0.00,,---,0.00,VWS V14.00,2013-01-23 07:03:00,
2013-01-22 23:08:00,30.8,30.5,29.99,SE,134,0.0,1.0,99,0.00,,---,0.00,VWS V14.00,2013-01-23 07:08:00,
2013-01-22 23:13:00,30.9,30.6,29.99,South,177,0.0,2.0,99,0.00,,---,0.00,VWS V14.00,2013-01-23 07:13:00,
2013-01-22 23:18:00,30.9,30.6,29.99,SSE,153,0.0,2.0,99,0.00,,---,0.00,VWS V14.00,2013-01-23 07:18:00,
2013-01-22 23:23:00,31.0,30.5,29.99,South,176,0.0,2.0,98,0.00,,---,0.00,VWS V14.00,2013-01-23 07:23:00,
2013-01-22 23:28:00,31.0,30.5,29.99,South,176,0.0,2.0,98,0.00,,---,0.00,VWS V14.00,2013-01-23 07:28:00,
2013-01-22 23:33:00,31.1,30.9,29.98,South,176,0.0,0.0,99,0.00,,---,0.00,VWS V14.00,2013-01-23 07:33:00,
2013-01-22 23:38:00,31.1,30.6,29.99,South,179,0.0,1.0,98,0.00,,---,0.00,VWS V14.00,2013-01-23 07:38:00,
2013-01-22 23:43:00,31.1,30.6,29.99,SSW,208,0.0,2.0,98,0.00,,---,0.00,VWS V14.00,2013-01-23 07:43:00,
2013-01-22 23:48:00,31.0,30.8,29.99,SSW,208,0.0,2.0,99,0.00,,---,0.00,VWS V14.00,2013-01-23 07:48:00,
2013-01-22 23:54:00,31.0,30.8,29.99,SSW,200,0.0,2.0,99,0.00,,---,0.00,VWS V14.00,2013-01-23 07:54:00,
2013-01-22 23:58:00,31.0,30.8,29.98,SSW,200,0.0,2.0,99,0.00,,---,0.00,VWS V14.00,2013-01-23 07:58:00,